{"data":{"norad_id":63814,"intl_designator":"2025-092L","name":"STARLINK-34057","alt_names":[],"object_type":"PAYLOAD","status":"ACTIVE","operator":null,"country":"US","launch_date":"2025-05-04","launch_site_code":"AFETR","launch_vehicle":null,"mission":null,"orbit_class":"UNKNOWN","rcs_meters":null,"size_class":null,"mass_kg":null,"dimensions":null,"purposes":["comms"],"wikipedia_slug":null,"has_3d_model":false,"image_url":null,"decayed_at":null,"tle_current":{"epoch":"2026-09-20T23:17:24.185184Z","epoch_age_seconds":109257,"freshness":"FRESH","line1":"1 63814U 25092L   26263.97041881  .00008739  00000+0  32668-3 0  9991","line2":"2 63814  42.9996 149.4071 0000731 256.3723 103.7048 15.27581326 78488","mean_motion":15.27581326,"eccentricity":7.31e-5,"inclination_deg":42.9996,"raan_deg":149.4071,"arg_perigee_deg":256.3723,"mean_anomaly_deg":103.7048,"bstar":0.00032668,"rev_number":7848,"period_min":94.266666886448,"perigee_km":482.54357310812,"apogee_km":483.54667793487,"semimajor_km":6861.1821255215,"source":"CELESTRAK","updated_at":"2026-09-21T09:00:35.105763Z"}}}